TimeCST,TemperatureF,Dew PointF,Humidity,Sea Level PressureIn,VisibilityMPH,Wind Direction,Wind SpeedMPH,Gust SpeedMPH,PrecipitationIn,Events,Conditions,WindDirDegrees,DateUTC
12:26 AM,32.0,26.6,80,30.03,9.0,NNW,13.8,23.0,N/A,,Overcast,330,2013-02-28 06:26:00
12:53 AM,32.0,26.1,79,30.06,9.0,NNW,17.3,29.9,N/A,,Overcast,330,2013-02-28 06:53:00
1:53 AM,32.0,26.1,79,30.06,7.0,NNW,16.1,23.0,N/A,,Overcast,330,2013-02-28 07:53:00
2:53 AM,30.9,25.0,79,30.07,7.0,NNW,11.5,19.6,N/A,,Overcast,330,2013-02-28 08:53:00
3:53 AM,30.9,25.0,79,30.07,7.0,NNW,10.4,-,N/A,,Overcast,340,2013-02-28 09:53:00
4:53 AM,30.0,24.1,79,30.09,8.0,NNW,13.8,20.7,N/A,,Overcast,340,2013-02-28 10:53:00
6:53 AM,28.0,23.0,81,30.14,8.0,NNW,11.5,20.7,N/A,,Overcast,330,2013-02-28 12:53:00
6:55 AM,28.4,23.0,80,30.11,8.0,NNW,12.7,20.7,N/A,,Overcast,340,2013-02-28 12:55:00
8:53 AM,28.0,23.0,81,30.17,7.0,North,12.7,-,N/A,,Overcast,350,2013-02-28 14:53:00
9:53 AM,28.9,23.0,78,30.18,7.0,North,12.7,-,N/A,,Overcast,350,2013-02-28 15:53:00
10:08 AM,28.4,23.0,80,30.16,8.0,NNW,13.8,19.6,N/A,,Overcast,340,2013-02-28 16:08:00
10:53 AM,30.0,23.0,75,30.19,8.0,NNW,10.4,-,N/A,,Overcast,340,2013-02-28 16:53:00
11:53 AM,30.9,24.1,76,30.20,8.0,NW,10.4,-,N/A,,Overcast,320,2013-02-28 17:53:00
12:53 PM,30.9,24.1,76,30.20,8.0,North,9.2,-,N/A,,Overcast,350,2013-02-28 18:53:00
1:53 PM,30.0,24.1,79,30.19,8.0,NNW,10.4,-,N/A,,Overcast,330,2013-02-28 19:53:00
2:53 PM,30.9,24.1,76,30.19,8.0,NNW,11.5,-,N/A,,Overcast,340,2013-02-28 20:53:00
3:53 PM,30.0,25.0,82,30.19,6.0,NNW,8.1,-,N/A,,Haze,330,2013-02-28 21:53:00
4:53 PM,30.0,24.1,79,30.19,7.0,NW,5.8,-,N/A,,Overcast,310,2013-02-28 22:53:00
5:53 PM,30.0,24.1,79,30.20,7.0,NW,10.4,-,N/A,,Overcast,310,2013-02-28 23:53:00
6:53 PM,30.0,25.0,82,30.21,10.0,WNW,5.8,-,N/A,,Overcast,300,2013-03-01 00:53:00
7:53 PM,28.9,25.0,85,30.22,10.0,NW,6.9,-,N/A,,Overcast,310,2013-03-01 01:53:00
8:04 PM,28.4,24.8,86,30.18,10.0,NW,4.6,-,N/A,,Overcast,310,2013-03-01 02:04:00
8:20 PM,28.4,24.8,86,30.18,10.0,NW,6.9,-,N/A,,Overcast,320,2013-03-01 02:20:00
8:28 PM,28.4,24.8,86,30.18,10.0,NW,5.8,-,N/A,,Overcast,320,2013-03-01 02:28:00
8:36 PM,28.4,24.8,86,30.18,10.0,NW,5.8,-,N/A,,Overcast,320,2013-03-01 02:36:00
8:53 PM,28.9,24.1,82,30.22,10.0,NW,5.8,-,N/A,,Overcast,320,2013-03-01 02:53:00
9:53 PM,28.9,24.1,82,30.22,10.0,NW,4.6,-,N/A,,Overcast,310,2013-03-01 03:53:00
10:36 PM,28.4,23.0,80,30.18,10.0,NW,4.6,-,N/A,,Overcast,310,2013-03-01 04:36:00
10:53 PM,28.9,23.0,78,30.21,10.0,NW,6.9,-,N/A,,Overcast,320,2013-03-01 04:53:00
11:23 PM,28.4,23.0,80,30.17,10.0,NW,6.9,-,N/A,,Overcast,320,2013-03-01 05:23:00
11:53 PM,28.9,23.0,78,30.20,10.0,NNW,9.2,-,N/A,,Overcast,330,2013-03-01 05:53:00